Stations météo

réclame
Mon MeteoGroup
Abbeville, France (7005): Température de l'air & dewpoint: 10.08.2018 21:00:00 - 16.08.2018 21:00:00 (CEST)Abbeville, France (7005): Température de l'air 5cm: 10.08.2018 21:00:00 - 16.08.2018 21:00:00 (CEST)Abbeville, France (7005): Température de l'air -20cm & Température de l'air -100cm: 10.08.2018 21:00:00 - 16.08.2018 21:00:00 (CEST)Abbeville, France (7005): Vitesse du vent & gusts: 10.08.2018 21:00:00 - 16.08.2018 21:00:00 (CEST)Abbeville, France (7005): Direction du vent: 10.08.2018 21:00:00 - 16.08.2018 21:00:00 (CEST)Abbeville, France (7005): reduced air pressure: 10.08.2018 21:00:00 - 16.08.2018 21:00:00 (CEST)Abbeville, France (7005): visibility: 10.08.2018 21:00:00 - 16.08.2018 21:00:00 (CEST)Abbeville, France (7005): Ensoleillement: 10.08.2018 21:00:00 - 16.08.2018 21:00:00 (CEST)Abbeville, France (7005): Quantités de précipitations: 10.08.2018 21:00:00 - 16.08.2018 21:00:00 (CEST)
Date & Time tt [°C] td [°C] tt 5cm [°C] tt -20cm [°C] tt -100cm [°C] ff [km/h] ff [knt] fx [km/h] fx [knt] dd ppp [hPa] vv [km] sd [min] rr [mm]
16.08.2018 21:00:00 17,8 15,4 17,4 21,3 18,2 14 8 32 17 WNW 1015,6 20 0 0,2
16.08.2018 20:00:00 18,8 15,8 18,8 21,3 18,2 19 10 29 16 WNW 1015,2 20 0 0,0
16.08.2018 19:00:00 19,6 15,7 19,8 21,3 18,2 19 10 28 15 WNW 1015,1 20 4 0,0
16.08.2018 18:00:00 21,3 15,2 23,9 21,1 18,2 17 9 31 17 NW 1015,0 20 49 0,0
16.08.2018 17:00:00 21,8 15,4 23,4 20,9 18,2 26 14 40 21 W 1015,3 20 36 0,0
16.08.2018 16:00:00 22,4 15,5 23,8 20,6 18,2 23 13 41 22 W 1015,3 20 44 0,0
16.08.2018 15:00:00 23,0 16,1 24,6 20,2 18,2 27 14 39 21 WNW 1015,1 20 24 0,0
16.08.2018 14:00:00 24,7 15,6 26,9 19,7 18,2 12 6 25 13 WSW 1014,8 20 47 0,0
16.08.2018 13:00:00 24,4 15,6 25,0 19,2 18,2 10 6 21 12 SW 1015,0 20 33 0,0
16.08.2018 12:00:00 23,9 15,9 23,5 19,0 18,2 11 6 30 16 SSW 1015,3 20 50 0,0
16.08.2018 11:00:00 23,1 15,9 24,1 18,8 18,2 10 5 21 12 SSW 1015,7 20 50 0,0
16.08.2018 10:00:00 20,8 15,8 20,8 18,7 18,2 7 4 16 9 S 1016,0 20 47 0,0
16.08.2018 09:00:00 18,7 15,2 18,0 18,8 18,2 8 4 14 8 S 1016,3 20 4 0,0
16.08.2018 08:00:00 17,6 14,9 17,1 18,8 18,2 4 2 16 9 S 1016,7 20 0 0,0
16.08.2018 07:00:00 17,5 14,6 17,1 18,9 18,2 9 5 16 8 SSE 1016,7 20 0 0,0
16.08.2018 06:00:00 17,5 14,2 16,5 19,0 18,2 6 3 10 6 S 1017,0 20 0 0,0
16.08.2018 05:00:00 18,0 14,3 16,2 19,1 18,2 6 3 15 8 S 1017,2 20 0 0,0
16.08.2018 04:00:00 16,9 13,8 15,7 19,3 18,2 6 3 13 7 S 1017,6 20 0 0,0
16.08.2018 03:00:00 16,5 14,0 15,2 19,4 18,2 5 3 8 5 S 1017,9 20 0 0,0
16.08.2018 02:00:00 16,8 14,1 15,0 19,5 18,2 4 2 11 6 S 1018,5 20 0 0,0
16.08.2018 01:00:00 17,9 14,8 17,1 19,7 18,2 5 3 9 5 SSW 1018,8 20 0 0,0
16.08.2018 00:00:00 17,9 14,2 17,3 19,7 18,2 4 2 8 4 S 1019,0 20 0 0,0
15.08.2018 23:00:00 17,7 14,0 16,7 19,9 18,2 3 2 7 4 SSW 1019,2 20 0 0,0
15.08.2018 22:00:00 18,0 13,9 17,1 20,0 18,2 5 3 10 5 WSW 1019,3 20 0 0,0
15.08.2018 21:00:00 18,9 13,5 18,2 20,0 18,2 6 4 21 11 W 1019,2 20 23 0,0
15.08.2018 20:00:00 19,9 13,6 21,0 19,9 18,2 13 7 27 15 W 1019,4 20 60 0,0
15.08.2018 19:00:00 20,8 13,7 23,1 19,7 18,2 19 11 33 18 W 1019,5 20 60 0,0
15.08.2018 18:00:00 21,1 14,3 23,2 19,5 18,2 23 12 36 19 W 1020,0 20 58 0,0
15.08.2018 17:00:00 21,4 15,5 22,1 19,2 18,2 22 12 35 19 W 1020,0 20 47 0,0
15.08.2018 16:00:00 21,0 15,1 21,8 19,0 18,2 20 11 30 16 W 1020,1 20 18 0,0
15.08.2018 15:00:00 19,6 15,3 20,0 18,9 18,2 16 8 28 15 W 1020,8 20 0 0,0
15.08.2018 14:00:00 20,2 14,8 19,8 18,8 18,2 16 8 27 15 W 1020,8 20 0 0,0
15.08.2018 13:00:00 18,9 15,0 18,5 18,7 18,3 18 10 26 14 W 1020,8 20 0 0,0
15.08.2018 12:00:00 18,1 14,4 18,4 18,7 18,2 18 10 32 18 W 1021,1 20 0 0,0
15.08.2018 11:00:00 18,3 14,8 18,2 18,7 18,2 19 10 30 16 W 1021,0 20 0 0,0
15.08.2018 10:00:00 17,9 14,0 17,4 18,8 18,2 16 9 31 17 W 1020,6 20 0 0,0
15.08.2018 09:00:00 17,6 14,7 17,2 18,8 18,2 14 8 26 14 WSW 1020,3 20 0 0,0
15.08.2018 08:00:00 17,5 14,8 16,4 18,9 18,2 14 8 24 13 WSW 1019,9 20 0 0,0
15.08.2018 07:00:00 17,1 15,3 16,2 19,0 18,3 9 5 18 10 SW 1019,6 14 0 0,0
15.08.2018 06:00:00 17,2 14,8 16,6 19,1 18,3 8 4 18 10 SW 1019,6 20 0 0,0
15.08.2018 05:00:00 16,9 14,9 16,0 19,2 18,3 12 6 21 11 WSW 1019,6 20 0 0,0
15.08.2018 04:00:00 17,0 14,8 16,2 19,3 18,3 12 7 22 12 WSW 1019,6 20 0 0,0
15.08.2018 03:00:00 17,5 15,1 17,0 19,4 18,3 13 7 29 15 WSW 1020,0 20 0 0,0
15.08.2018 02:00:00 17,7 16,0 16,6 19,5 18,3 11 6 19 10 WSW 1020,1 20 0 0,0
15.08.2018 01:00:00 16,8 15,5 15,4 19,7 18,3 5 3 11 6 S 1020,1 20 0 0,0
15.08.2018 00:00:00 16,5 15,0 15,3 19,9 18,3 5 3 10 5 SSW 1020,1 20 0 0,0
14.08.2018 23:00:00 17,1 15,3 16,3 20,0 18,3 8 4 18 10 WSW 1019,9 20 0 0,0
14.08.2018 22:00:00 17,3 14,8 16,4 20,2 18,3 9 5 20 11 WSW 1019,7 20 0 0,0
14.08.2018 21:00:00 18,2 13,9 17,6 20,3 18,3 11 6 29 16 W 1019,2 20 47 0,0
14.08.2018 20:00:00 19,3 13,9 19,7 20,3 18,3 20 11 36 19 W 1019,1 20 43 0,0
14.08.2018 19:00:00 19,4 14,0 19,8 20,3 18,3 23 12 40 22 W 1019,3 20 0 0,0
14.08.2018 18:00:00 19,6 14,8 20,1 20,1 18,2 24 13 40 22 W 1019,3 20 22 0,0
14.08.2018 17:00:00 20,8 14,7 21,4 19,9 18,3 22 12 37 20 W 1018,9 20 39 0,0
14.08.2018 16:00:00 20,8 14,2 23,0 19,6 18,3 24 13 36 19 W 1019,0 20 42 0,0
14.08.2018 15:00:00 20,8 15,1 21,7 19,3 18,3 24 13 36 20 W 1018,8 20 27 0,0
14.08.2018 14:00:00 21,2 14,6 21,3 19,1 18,3 19 10 32 17 WNW 1018,5 20 15 0,0
14.08.2018 13:00:00 20,7 15,0 21,2 18,8 18,3 23 12 33 18 WNW 1017,9 20 37 0,0
14.08.2018 12:00:00 20,3 14,9 21,7 18,6 18,3 18 10 29 16 WNW 1017,4 20 44 0,0
14.08.2018 11:00:00 19,8 14,6 20,0 18,5 18,3 18 10 27 14 W 1017,0 20 23 0,0
14.08.2018 10:00:00 19,1 13,9 20,2 18,5 18,3 15 8 25 13 WNW 1016,6 20 40 0,0
14.08.2018 09:00:00 18,4 14,1 19,2 18,6 18,3 17 9 27 15 WNW 1016,1 20 60 0,0
14.08.2018 08:00:00 17,1 13,8 15,4 18,7 18,3 6 3 14 7 WNW 1015,4 20 9 0,0
14.08.2018 07:00:00 15,9 14,4 14,4 18,8 18,3 10 6 14 8 W 1014,7 20 0 0,0
14.08.2018 06:00:00 16,1 14,8 15,2 18,9 18,3 9 5 14 8 WNW 1014,0 20 0 0,0
14.08.2018 05:00:00 17,0 15,9 16,0 19,0 18,3 9 5 21 11 W 1013,6 14 0 0,0
14.08.2018 04:00:00 16,9 15,8 15,9 19,2 18,3 9 5 20 11 W 1013,1 13 0 0,0
14.08.2018 03:00:00 16,7 15,6 15,8 19,3 18,3 9 5 16 9 W 1012,7 14 0 0,0
14.08.2018 02:00:00 16,9 15,4 16,2 19,5 18,3 12 7 23 12 W 1012,5 19 0 0,0
14.08.2018 01:00:00 17,1 15,6 15,7 19,7 18,3 14 8 23 12 W 1012,3 20 0 0,0
14.08.2018 00:00:00 16,5 14,7 15,7 19,9 18,3 9 5 21 11 WSW 1012,0 20 0 0,0
13.08.2018 23:00:00 16,7 14,3 16,0 20,1 18,3 14 8 24 13 WSW 1011,7 20 0 0,0
13.08.2018 22:00:00 16,9 14,0 16,1 20,2 18,3 16 9 28 15 WSW 1011,4 20 0 0,0
13.08.2018 21:00:00 17,8 13,9 17,3 20,4 18,3 20 11 35 19 W 1010,9 20 47 0,0
13.08.2018 20:00:00 18,7 14,4 18,7 20,4 18,3 26 14 45 24 W 1010,5 20 23 0,0
13.08.2018 19:00:00 19,6 14,6 20,0 20,3 18,3 25 14 44 24 W 1010,0 20 48 0,0
13.08.2018 18:00:00 19,9 14,7 20,1 20,2 18,3 30 16 48 26 W 1009,6 20 49 0,0
13.08.2018 17:00:00 19,6 15,3 20,1 20,1 18,3 31 17 53 28 W 1009,4 20 28 0,0
13.08.2018 16:00:00 19,3 15,0 20,4 19,9 18,3 31 17 45 25 W 1009,2 20 29 0,0
13.08.2018 15:00:00 19,2 15,9 19,8 19,7 18,3 28 15 41 22 W 1009,0 20 13 0,0
13.08.2018 14:00:00 19,1 16,1 18,2 19,5 18,3 24 13 39 21 W 1008,5 20 22 0,0
13.08.2018 13:00:00 19,0 17,0 17,1 19,4 18,3 15 8 27 15 W 1008,4 20 21 0,2
13.08.2018 12:00:00 16,9 15,9 16,5 19,4 18,3 10 6 21 11 SW 1008,2 9 0 3,0
13.08.2018 11:00:00 17,1 15,8 16,6 19,4 18,3 9 5 23 12 SW 1007,8 19 0 0,6
13.08.2018 10:00:00 17,7 16,0 16,9 19,4 18,3 10 5 21 12 SW 1007,5 20 10 0,0
13.08.2018 09:00:00 16,9 16,1 16,3 19,5 18,3 6 4 17 9 SSW 1007,4 7 0 1,2
13.08.2018 08:00:00 16,9 16,1 16,2 19,6 18,3 6 3 17 9 SW 1007,0 3,8 30 1,4
13.08.2018 07:00:00 16,6 15,6 16,2 19,7 18,3 5 3 13 7 SSW 1006,9 15 0 0,0
13.08.2018 06:00:00 16,9 16,1 16,4 19,8 18,4 8 5 16 8 SW 1006,7 16 0 0,2
13.08.2018 05:00:00 16,9 15,9 16,4 19,9 18,3 7 4 14 8 SSW 1006,6 7 0 0,2
13.08.2018 04:00:00 17,1 15,8 16,4 20,1 18,4 4 2 14 8 S 1006,3 12 0 5,7
13.08.2018 03:00:00 17,5 15,5 16,4 20,2 18,4 6 3 9 5 SE 1006,6 20 0 0,0
13.08.2018 02:00:00 17,9 15,3 16,8 20,4 18,4 5 3 9 5 S 1007,7 20 0 0,0
13.08.2018 01:00:00 17,8 15,4 16,8 20,5 18,4 4 2 9 5 SSW 1008,1 20 0 0,0
13.08.2018 00:00:00 18,3 15,9 16,9 20,7 18,4 5 3 19 10 SSE 1008,6 20 0 0,4
12.08.2018 23:00:00 18,9 16,1 17,2 20,8 18,4 14 7 22 12 SE 1008,7 20 0 0,4
12.08.2018 22:00:00 19,2 15,7 17,5 20,9 18,4 7 4 10 5 E 1008,4 20 0 0,2
12.08.2018 21:00:00 19,7 15,8 19,1 21,0 18,4 6 3 8 4 ENE 1008,7 20 0 0,0
12.08.2018 20:00:00 20,8 14,4 19,6 21,0 18,4 5 3 22 12 WNW 1009,2 20 0 0,0
12.08.2018 19:00:00 22,6 13,6 22,4 20,9 18,4 18 10 37 20 W 1009,8 20 0 0,0
12.08.2018 18:00:00 25,8 12,3 26,1 20,6 18,4 7 4 23 13 SSW 1009,6 20 0 0,0
12.08.2018 17:00:00 26,7 12,0 27,7 20,3 18,4 11 6 28 15 S 1010,2 20 17 0,0
12.08.2018 16:00:00 26,0 11,4 27,8 20,0 18,4 11 6 29 16 S 1011,1 20 10 0,0
12.08.2018 15:00:00 26,3 11,6 27,0 19,6 18,4 13 7 29 16 S 1011,8 20 5 0,0
12.08.2018 14:00:00 25,8 11,2 27,6 19,2 18,4 18 10 31 17 SSE 1012,2 20 46 0,0
12.08.2018 13:00:00 25,2 11,0 24,6 19,0 18,4 19 10 35 19 S 1013,1 20 20 0,0
12.08.2018 12:00:00 23,2 10,6 24,3 18,8 18,4 17 9 34 19 SSE 1013,8 20 32 0,0
12.08.2018 11:00:00 22,4 10,8 22,8 18,7 18,4 19 10 32 17 SSE 1014,3 20 31 0,0
12.08.2018 10:00:00 21,6 11,9 20,7 18,7 18,4 13 7 27 14 SSE 1014,8 20 60 0,0
12.08.2018 09:00:00 19,0 10,8 18,2 18,9 18,4 13 7 25 13 SSE 1015,4 20 50 0,0
12.08.2018 08:00:00 17,5 10,4 16,8 19,0 18,4 15 8 24 13 SSE 1015,9 20 12 1,7
12.08.2018 07:00:00 17,2 10,1 16,5 19,2 18,5 13 7 21 12 SE 1016,2 20 0 0,0
12.08.2018 06:00:00 17,1 10,5 16,5 19,4 18,4 10 5 22 12 SE 1016,6 20 0 0,0
12.08.2018 05:00:00 17,0 11,0 16,1 19,6 18,5 13 7 18 10 SE 1016,8 20 0 0,0
12.08.2018 04:00:00 16,7 11,8 15,7 19,8 18,5 10 5 17 9 SE 1017,7 20 0 0,0
12.08.2018 03:00:00 17,0 12,3 16,0 20,0 18,5 9 5 15 8 SE 1018,1 20 0 0,0
12.08.2018 02:00:00 16,6 12,5 16,1 20,2 18,5 9 5 14 8 ESE 1018,9 20 0 0,0
12.08.2018 01:00:00 16,9 13,0 16,4 20,4 18,5 9 5 13 7 ESE 1019,4 20 0 0,0
12.08.2018 00:00:00 17,2 13,7 16,6 20,5 18,5 10 5 12 7 E 1020,1 20 0 0,0
11.08.2018 23:00:00 17,6 13,9 16,5 20,7 18,5 6 3 10 5 E 1020,7 20 0 0,0
11.08.2018 22:00:00 17,9 13,4 16,4 20,8 18,5 5 3 7 4 NE 1021,2 20 0 0,0
11.08.2018 21:00:00 19,5 13,7 19,1 20,7 18,5 6 3 9 5 NNE 1021,3 20 20 0,0
11.08.2018 20:00:00 20,2 13,2 20,9 20,6 18,6 8 5 14 8 NNW 1021,5 20 6 0,0
11.08.2018 19:00:00 21,3 12,4 24,9 20,3 18,5 6 3 15 8 NW 1021,9 20 60 0,0
11.08.2018 18:00:00 21,5 12,9 25,2 19,9 18,5 10 5 22 12 WNW 1022,1 20 55 0,0
11.08.2018 17:00:00 21,4 12,3 26,5 19,4 18,6 13 7 21 12 WNW 1022,8 20 60 0,0
11.08.2018 16:00:00 20,9 11,8 24,4 19,0 18,6 11 6 28 15 NW 1023,4 20 60 0,0
11.08.2018 15:00:00 20,2 11,7 23,8 18,5 18,6 16 9 35 19 W 1023,9 20 60 0,0
11.08.2018 14:00:00 19,9 10,3 23,9 18,0 18,6 19 10 32 17 W 1024,1 20 60 0,0
11.08.2018 13:00:00 19,7 9,8 19,0 17,7 18,6 15 8 27 15 W 1024,2 20 53 0,0
11.08.2018 12:00:00 19,2 10,2 20,4 17,4 18,6 16 9 26 14 W 1024,2 20 52 0,0
11.08.2018 11:00:00 18,3 9,6 16,5 17,2 18,6 13 7 24 13 W 1024,6 20 47 0,0
11.08.2018 10:00:00 17,8 10,7 19,0 17,2 18,6 13 7 26 14 WNW 1024,5 20 58 0,2
11.08.2018 09:00:00 16,1 12,5 18,4 17,3 18,6 4 2 8 5 SW 1024,2 20 60 0,0
11.08.2018 08:00:00 14,5 12,7 13,0 17,5 18,6 5 3 9 5 SSW 1023,9 20 7 0,0
11.08.2018 07:00:00 12,6 10,8 10,9 17,7 18,7 4 2 9 5 SSW 1023,5 20 0 0,0
11.08.2018 06:00:00 12,4 10,8 10,7 17,9 18,6 5 3 7 4 S 1023,2 20 0 0,0
11.08.2018 05:00:00 13,3 12,0 11,3 18,1 18,7 4 2 8 4 SW 1022,9 20 0 0,0
11.08.2018 04:00:00 13,7 11,9 12,1 18,3 18,7 4 2 11 6 SSW 1022,7 20 0 0,0
11.08.2018 03:00:00 14,3 11,8 13,1 18,4 18,7 8 4 24 13 NW 1022,6 20 0 0,0
11.08.2018 02:00:00 15,3 13,3 14,5 18,6 18,7 7 4 22 12 W 1022,5 20 0 0,0
11.08.2018 01:00:00 15,3 13,3 14,5 18,8 18,7 11 6 24 13 WSW 1022,4 20 0 0,0
11.08.2018 00:00:00 15,3 13,7 14,2 19,0 18,7 14 8 42 23 W 1022,2 17 0 0,2
10.08.2018 23:00:00 15,2 13,7 14,4 19,1 18,7 14 8 31 17 WSW 1021,8 20 0 0,4
10.08.2018 22:00:00 15,6 14,0 14,6 19,2 18,7 16 9 31 17 SW 1021,6 15 0 0,4
10.08.2018 21:00:00 15,4 13,6 14,4 19,3 18,7 13 7 39 21 SW 1021,4 19 0 2,8

tt = Température de l'air
td = dewpoint
tt 5cm = Température de l'air 5cm
tt -20cm = Température de l'air -20cm
tt -100cm = Température de l'air -100cm
ff = Vitesse du vent
fx = gusts
dd = Direction du vent
ppp = reduced air pressure
vv = visibility
sd = Ensoleillement
rr = Quantités de précipitations

stations d'obs. à proximité